Powrót do katalogu

TITAN 3C TRANSTAGE DEB

LostHEO
NORAD 20760·DEBRIS·🇺🇸 United States

Wystrzelony Dec 21, 1965 z Cape Canaveral Space Force Station

Loading…

Następne Przeloty (najbliższe 24 godziny)

TLE

NieaktualneSource: Space-Track

Epoka: Mar 14, 2026, 04:50 UTC

1 20760U 65108AE  26073.20171028 -.00000182  00000-0 -11916-2 0  9997
2 20760  27.4554   4.0470 6692182 234.2318 337.8733  2.84508125148648

Śledź TITAN 3C TRANSTAGE DEB w czasie rzeczywistym z AllMySat

Download on the App Store